(152223) = 2005 RF33

Discovered at Catalina on 2005-09-14 by CSS.

Orbit

Orbit type: Main Belt

Note: WebGL enabled browser required.

epoch2024-03-31.0
epoch JD2460400.5
perihelion date2021-08-03.09932
perihelion JD2459429.59932
argument of perihelion (°)208.71404
ascending node (°)135.90022
inclination (°)12.06127
eccentricity0.2919328
perihelion distance (AU)2.1724195
Tisserand w.r.t. Jupiter3.1
ΔV w.r.t. Earth (km/sec)10.0
semimajor axis (AU)3.0680978
mean anomaly (°)178.06348
mean daily motion (°/day)0.18340030
aphelion distance (AU)3.964
period (years)5.37
P-vector [x]0.95678078
P-vector [y]-0.21047735
P-vector [z]-0.20067344
Q-vector [x]0.25184289
Q-vector [y]0.94474200
Q-vector [z]0.20985162
absolute magnitude15.74
phase slope0.15
uncertainty0
referenceMPEC 2024-E123
observations used517
oppositions15
arc length (days)8063
first opposition used2002
last opposition used2024
residual rms (arc-secs)0.71
perturbers coarse indicatorM-v
perturbers precise indicator003Ek
first observation date used2002-02-08.0
last observation date used2024-03-07.0
computer nameMPCLINUX
JD of orbit computation2456819.458748
perihelion JD uncertainty (days)1.0996E-04
argument of perihelion uncertainty (°)3.6905E-05
ascending node uncertainty (°)3.4595E-05
inclination uncertainty (°)1.0099E-05
eccentricity uncertainty 9.3691E-08
perihelion distance uncertainty (AU)3.1461E-07
Minimum Orbit Intersection Distances (in AU)
for orbit epoch: 2460400.5, reference: E2024-GF4
Mercury1.78433
Venus1.44579
Earth1.17222
Mars0.79802
Jupiter1.46724
Saturn5.36207
Uranus14.4935
Neptune26.5009

Observations

534 total observations over interval: 2002 02 08.22017 – 2024 03 07.304836
These data are available for download (format description).

Date (UT) J2000 RA J2000 Dec Magn Location Ref
2002 02 08.22017 09 19 42.42 +16 09 02.8 21.6 V 291 – LPL/Spacewatch II MPS 149608
2002 02 08.24110 09 19 41.45 +16 09 09.9 21.4 V 291 – LPL/Spacewatch II MPS 149608
2002 02 08.26245 09 19 40.42 +16 09 16.7 21.1 V 291 – LPL/Spacewatch II MPS 149608
2004 04 19.41933 16 16 55.81 -04 30 26.4 21.9 V 691 – Steward Observatory, Kitt Peak-Spacewatch MPS 149608
2004 04 19.44590 16 16 55.10 -04 30 19.1 21.9 V 691 – Steward Observatory, Kitt Peak-Spacewatch MPS 149608
2004 04 19.47637 16 16 54.29 -04 30 10.9 21.8 V 691 – Steward Observatory, Kitt Peak-Spacewatch MPS 149608
2004 05 14.33535 16 01 09.13 -02 50 03.8 19.2 R 699 – Lowell Observatory-LONEOS MPS 149608
2004 05 14.35649 16 01 08.13 -02 50 02.2   699 – Lowell Observatory-LONEOS MPS 149608
2004 05 14.37759 16 01 07.12 -02 49 57.1   699 – Lowell Observatory-LONEOS MPS 149608
2004 05 14.40953 16 01 05.61 -02 49 50.0   699 – Lowell Observatory-LONEOS MPS 149608
2004 05 24.26455 15 53 01.77 -02 25 43.5 19.9   704 – Lincoln Laboratory ETS, New Mexico MPS 149608
2004 05 24.27347 15 53 01.39 -02 25 42.2 20.1   704 – Lincoln Laboratory ETS, New Mexico MPS 149608
2004 05 24.28240 15 53 00.91 -02 25 41.7 20.2   704 – Lincoln Laboratory ETS, New Mexico MPS 149608
2004 05 24.29136 15 53 00.53 -02 25 40.2 19.5   704 – Lincoln Laboratory ETS, New Mexico MPS 149608
2005 08 31.48051 02 03 28.97 -03 03 26.9 18.7 R 644 – Palomar Mountain/NEAT MPS 142260
2005 08 31.49277 02 03 29.18 -03 03 32.6 18.5 R 644 – Palomar Mountain/NEAT MPS 142260
2005 08 31.50317 02 03 29.31 -03 03 37.2 18.7 R 644 – Palomar Mountain/NEAT MPS 142260
2005 09 14.38759 02 04 40.08 -05 04 01.5 18.6 V 703 – Catalina Sky Survey MPS 141822
2005 09 14.39690 02 04 39.93 -05 04 07.1 18.6 V 703 – Catalina Sky Survey MPS 141822
2005 09 14.40596 02 04 39.90 -05 04 11.3 18.6 V 703 – Catalina Sky Survey MPS 141822
2005 09 14.41513 02 04 39.79 -05 04 17.3 18.6 V 703 – Catalina Sky Survey MPS 141822
2005 09 15.34346 02 04 32.48 -05 12 56.1 18.6 V 703 – Catalina Sky Survey MPS 141822
2005 09 15.35161 02 04 32.37 -05 13 00.7 18.6 V 703 – Catalina Sky Survey MPS 141822
2005 09 15.35985 02 04 32.26 -05 13 05.0 18.3 V 703 – Catalina Sky Survey MPS 141822
2005 09 15.36806 02 04 32.19 -05 13 08.7 18.2 V 703 – Catalina Sky Survey MPS 141822
2005 09 15.41175 02 04 31.65 -05 13 33.8 18.5 V 703 – Catalina Sky Survey MPS 141822
2005 09 15.41704 02 04 31.58 -05 13 37.0 18.5 V 703 – Catalina Sky Survey MPS 141822
2005 09 15.42235 02 04 31.54 -05 13 39.4 18.4 V 703 – Catalina Sky Survey MPS 141822
2005 09 15.42764 02 04 31.47 -05 13 42.9 18.7 V 703 – Catalina Sky Survey MPS 141822
2005 09 28.33241 02 00 19.81 -07 14 44.7 18.2 R 644 – Palomar Mountain/NEAT MPS 142742
2005 09 28.35450 02 00 19.10 -07 14 56.6 18.7 R 644 – Palomar Mountain/NEAT MPS 142742
2005 09 28.37721 02 00 18.41 -07 15 09.0 18.6 R 644 – Palomar Mountain/NEAT MPS 142742
2005 10 01.33072 01 58 46.69 -07 41 44.4 18.9 R 699 – Lowell Observatory-LONEOS MPS 144105
2005 10 01.35370 01 58 45.82 -07 41 57.6   699 – Lowell Observatory-LONEOS MPS 144105
2005 10 01.37670 01 58 44.95 -07 42 09.2   699 – Lowell Observatory-LONEOS MPS 144105
2005 10 01.39967 01 58 44.19 -07 42 21.8   699 – Lowell Observatory-LONEOS MPS 144105
2005 10 08.34676 01 54 30.49 -08 40 23.6 17.9 V 703 – Catalina Sky Survey MPS 144105
2005 10 08.35317 01 54 30.27 -08 40 26.4 18.0 V 703 – Catalina Sky Survey MPS 144105
2005 10 08.35959 01 54 30.06 -08 40 28.8 18.0 V 703 – Catalina Sky Survey MPS 144105
2005 10 08.36601 01 54 29.70 -08 40 31.4 18.2 V 703 – Catalina Sky Survey MPS 144105
2005 11 05.24726 01 35 39.08 -10 38 49.5 19.0 V 703 – Catalina Sky Survey MPS 149608
2005 11 05.25465 01 35 38.86 -10 38 48.8 18.8 V 703 – Catalina Sky Survey MPS 149608
2005 11 05.26208 01 35 38.61 -10 38 49.2 19.0 V 703 – Catalina Sky Survey MPS 149608
2005 11 05.26955 01 35 38.36 -10 38 49.1 19.1 V 703 – Catalina Sky Survey MPS 149608
2005 12 06.15631 01 29 29.07 -08 39 06.3 19.2 V 703 – Catalina Sky Survey MPS 153715
2005 12 06.16223 01 29 29.11 -08 39 02.4 19.9 V 703 – Catalina Sky Survey MPS 153715
2005 12 06.16816 01 29 29.07 -08 39 00.5 19.2 V 703 – Catalina Sky Survey MPS 153715
2005 12 06.17405 01 29 29.14 -08 38 56.4 19.8 V 703 – Catalina Sky Survey MPS 153715
2006 12 27.28961 08 17 09.74 +13 49 02.0 21.2 V G96 – Mt. Lemmon Survey MPS 192241
2006 12 27.29662 08 17 09.42 +13 49 03.6 22.2 V G96 – Mt. Lemmon Survey MPS 192241
2006 12 27.30384 08 17 09.09 +13 49 04.6 22.2 V G96 – Mt. Lemmon Survey MPS 192241
2006 12 27.31089 08 17 08.80 +13 49 07.1 21.4 V G96 – Mt. Lemmon Survey MPS 192241
2007 02 06.15863 07 45 02.62 +16 54 05.7   691 – Steward Observatory, Kitt Peak-Spacewatch MPS 198716
2007 02 06.17771 07 45 01.74 +16 54 11.0   691 – Steward Observatory, Kitt Peak-Spacewatch MPS 198716
2007 02 06.19709 07 45 00.92 +16 54 16.5   691 – Steward Observatory, Kitt Peak-Spacewatch MPS 198716
2007 02 08.12290 07 43 41.94 +17 03 03.5   691 – Steward Observatory, Kitt Peak-Spacewatch MPS 198716
2007 02 08.13630 07 43 41.38 +17 03 06.9   691 – Steward Observatory, Kitt Peak-Spacewatch MPS 198716
2007 02 08.14971 07 43 40.83 +17 03 10.4   691 – Steward Observatory, Kitt Peak-Spacewatch MPS 198716
2007 02 17.10378 07 38 19.68 +17 41 57.4   691 – Steward Observatory, Kitt Peak-Spacewatch MPS 200388
2007 02 17.12634 07 38 18.97 +17 42 03.1   691 – Steward Observatory, Kitt Peak-Spacewatch MPS 200388
2007 02 17.14890 07 38 18.20 +17 42 08.4   691 – Steward Observatory, Kitt Peak-Spacewatch MPS 200388
2008 02 08.39669 11 31 56.49 +10 33 12.1 21.3 V G96 – Mt. Lemmon Survey MPS 237268
2008 02 08.40407 11 31 56.28 +10 33 15.0 22.4 V G96 – Mt. Lemmon Survey MPS 237268
2008 02 08.41152 11 31 56.10 +10 33 16.3 21.8 V G96 – Mt. Lemmon Survey MPS 237268
2008 02 08.41893 11 31 55.84 +10 33 19.2 22.0 V G96 – Mt. Lemmon Survey MPS 237268
2008 03 12.29298 11 11 09.60 +13 55 19.8 20.8 V G96 – Mt. Lemmon Survey MPS 275821
2008 03 12.29352 11 11 09.49 +13 55 17.9 20.7 V G96 – Mt. Lemmon Survey MPS 243411
2008 03 12.29991 11 11 09.31 +13 55 22.2 20.9 V G96 – Mt. Lemmon Survey MPS 275821
2008 03 12.30044 11 11 09.20 +13 55 20.2 20.7 V G96 – Mt. Lemmon Survey MPS 243411
2008 03 12.30682 11 11 08.95 +13 55 24.6 20.6 V G96 – Mt. Lemmon Survey MPS 275821
2008 03 12.30736 11 11 08.84 +13 55 22.8 20.3 V G96 – Mt. Lemmon Survey MPS 243411
2008 03 12.31377 11 11 08.70 +13 55 26.4 20.6 V G96 – Mt. Lemmon Survey MPS 275821
2008 03 12.31432 11 11 08.62 +13 55 24.3 20.0 V G96 – Mt. Lemmon Survey MPS 243411
2008 04 05.23941 10 56 24.21 +15 40 53.4 21.5 V G96 – Mt. Lemmon Survey MPS 246608
2008 04 05.24610 10 56 24.00 +15 40 54.0 21.6 V G96 – Mt. Lemmon Survey MPS 246608
2008 04 05.25267 10 56 23.78 +15 40 55.3 21.3 V G96 – Mt. Lemmon Survey MPS 246608
2008 04 05.25926 10 56 23.56 +15 40 56.6 21.8 V G96 – Mt. Lemmon Survey MPS 246608
2010 04 25.925391 20 26 58.910 -11 33 39.60   C51 – WISE MPS 926446
2010 04 26.057696 20 27 08.43 -11 33 10.3   C51 – WISE MPS 326075
2010 04 26.454609 20 27 36.72 -11 31 43.2   C51 – WISE MPS 326075
2010 04 26.454736 20 27 36.74 -11 31 42.7   C51 – WISE MPS 326075
2010 04 26.520824 20 27 41.43 -11 31 28.8   C51 – WISE MPS 326075
2010 04 26.587039 20 27 46.14 -11 31 13.1   C51 – WISE MPS 326075
2010 04 26.653128 20 27 50.83 -11 30 58.5   C51 – WISE MPS 326075
2010 04 26.785433 20 28 00.31 -11 30 30.2   C51 – WISE MPS 326076
2010 04 26.917737 20 28 09.69 -11 30 01.0   C51 – WISE MPS 326076
2010 04 27.050042 20 28 19.188 -11 29 32.21   C51 – WISE MPS 926446
2010 04 27.182345 20 28 28.42 -11 29 02.3   C51 – WISE MPS 326076
2010 07 05.99182 21 07 42.01 -11 28 38.5 18.6 V J75 – OAM Observatory, La Sagra MPS 338586
2010 07 06.00625 21 07 41.68 -11 28 44.1 17.6 V J75 – OAM Observatory, La Sagra MPS 338586
2010 07 06.02076 21 07 41.56 -11 28 49.7 18.5 V J75 – OAM Observatory, La Sagra MPS 338586
2010 07 10.95795 21 06 16.68 -12 01 20.6 18.6 V J75 – OAM Observatory, La Sagra MPS 339662
2010 07 10.97199 21 06 16.32 -12 01 26.6 18.3 V J75 – OAM Observatory, La Sagra MPS 339662
2010 07 10.98603 21 06 16.07 -12 01 33.0 18.2 V J75 – OAM Observatory, La Sagra MPS 339662
2010 07 13.99773 21 05 07.41 -12 23 53.6 19.0 V J75 – OAM Observatory, La Sagra MPS 339662
